Date,TemperatureHighF,TemperatureAvgF,TemperatureLowF,DewpointHighF,DewpointAvgF,DewpointLowF,HumidityHigh,HumidityAvg,HumidityLow,PressureMaxIn,PressureMinIn,WindSpeedMaxMPH,WindSpeedAvgMPH,GustSpeedMaxMPH,PrecipitationSumIn
2013-1-1,52,45,34,47,40,22,99,85,46,29.88,29.74,8,1,17,0.15
2013-1-2,39,37,34,39,34,32,99,89,75,29.92,29.76,2,0,4,0.00
2013-1-3,39,34,27,35,28,24,99,81,62,29.99,29.90,11,2,17,0.00
2013-1-4,37,28,23,22,19,15,90,69,41,30.05,29.99,4,1,6,0.00
2013-1-5,47,40,22,29,21,15,85,49,28,30.11,30.01,5,0,10,0.00
2013-1-6,40,37,32,35,30,26,94,77,67,29.96,29.85,14,3,25,0.00
2013-1-7,44,34,25,28,25,22,90,72,46,30.15,27.07,13,1,21,0.00
2013-1-8,48,36,19,32,30,18,99,80,52,30.18,30.11,4,0,9,0.00
2013-1-9,59,47,28,54,45,27,99,95,80,30.25,30.16,8,0,12,0.00
2013-1-10,62,48,39,58,47,39,99,96,83,30.31,27.17,5,0,8,0.00
2013-1-11,57,47,42,57,46,40,99,98,80,30.17,29.95,4,0,8,0.24
2013-1-12,70,60,50,61,57,50,99,93,72,30.00,29.93,8,1,11,0.00
2013-1-13,65,59,52,60,58,52,99,94,82,29.96,29.89,2,1,4,0.01
2013-1-14,59,52,48,59,52,48,99,99,99,29.99,29.91,6,0,10,0.99
2013-1-15,48,41,40,48,41,39,99,99,99,29.99,29.86,1,0,4,1.24
2013-1-16,58,49,44,56,49,43,99,98,90,29.83,29.77,1,0,2,0.20
2013-1-17,47,33,29,47,33,27,99,99,92,29.96,29.70,8,0,15,0.65
2013-1-18,34,27,23,32,25,19,99,92,77,30.23,29.96,0,0,0,0.00
2013-1-19,38,27,19,35,26,19,99,98,85,30.19,29.91,3,0,5,0.02
2013-1-20,29,26,26,28,26,25,99,99,99,29.91,29.89,3,0,7,0.00
2013-1-21,42,33,25,32,20,5,95,62,42,29.87,29.71,16,3,33,0.01
2013-1-22,25,20,16,6,-5,-12,48,33,23,29.92,29.15,13,2,33,0.00
2013-1-23,37,26,18,27,11,-7,68,53,32,29.99,26.74,17,2,30,0.00
2013-1-24,38,23,15,29,6,-4,73,49,32,30.12,29.72,19,3,39,0.01
2013-1-25,38,22,14,37,16,1,99,79,52,30.14,29.75,13,1,32,0.07
2013-1-26,39,30,24,25,23,22,95,78,54,30.10,29.83,2,1,4,0.08
2013-1-27,32,28,21,30,25,20,99,89,79,30.22,30.12,0,0,2,0.01
2013-1-28,54,43,31,44,39,31,99,85,64,30.15,30.01,4,1,7,0.04
2013-1-29,65,52,42,54,47,38,99,84,59,30.03,29.86,2,1,4,0.01
2013-1-30,64,48,41,59,48,41,99,99,99,29.79,29.33,11,2,19,2.01
2013-1-31,43,30,26,41,24,17,99,78,62,29.69,29.32,17,1,28,0.01
2013-2-1,35,20,15,27,10,1,99,63,47,30.01,29.65,10,3,21,0.00
2013-2-2,35,26,14,29,19,9,99,79,48,30.01,29.77,2,0,4,0.00
2013-2-3,34,30,27,28,25,20,91,81,67,29.71,29.64,17,5,29,0.04
2013-2-4,47,38,21,29,26,14,90,65,42,29.85,29.75,6,0,10,0.00
2013-2-11,58,50,44,57,43,32,99,79,52,29.88,29.80,4,2,14,0.07
2013-2-12,54,42,32,35,25,20,98,54,26,29.86,29.75,7,2,12,0.07
2013-2-13,42,37,34,42,37,31,99,98,88,29.68,29.47,2,0,8,0.28
2013-2-14,51,37,28,29,26,21,93,70,35,29.83,29.66,8,2,12,0.28
2013-2-15,51,38,26,40,31,26,99,80,43,29.86,29.76,5,1,8,0.28
2013-2-16,30,27,20,25,18,10,80,70,60,29.78,29.61,8,4,12,0.00
2013-2-17,29,23,14,13,6,2,82,49,33,29.93,29.69,22,5,46,0.05
2013-2-18,50,32,16,26,18,7,82,57,36,30.05,29.89,3,1,4,0.00
2013-2-19,44,38,30,40,27,9,99,67,35,29.92,29.66,14,3,31,0.05
2013-2-20,43,28,27,11,8,-7,50,42,13,29.89,29.72,21,7,46,0.01
2013-2-21,37,24,22,16,13,8,70,61,35,29.95,29.85,5,0,11,0.00
2013-2-22,33,32,31,33,32,31,99,99,97,30.03,29.98,0,0,2,0.11
2013-2-23,55,42,33,52,41,33,99,96,81,29.82,29.67,2,0,3,0.13
2013-2-24,52,41,29,40,30,24,99,68,36,29.84,29.67,3,1,6,0.00
2013-2-25,43,32,25,27,24,22,92,75,52,29.91,29.83,3,1,6,0.00
2013-2-26,33,32,27,33,32,25,99,98,92,29.80,29.69,2,0,3,0.00
2013-2-27,50,38,34,36,32,29,94,81,59,29.59,29.47,3,2,7,0.12
2013-2-28,32,29,28,28,25,22,90,86,67,29.64,29.52,8,2,21,0.04
2013-3-1,35,31,28,28,26,23,92,81,68,29.69,29.63,13,2,24,0.00
2013-3-2,35,29,21,28,23,13,87,78,62,29.69,29.62,11,2,20,0.00
2013-3-3,29,23,18,16,13,11,78,67,54,29.71,29.65,15,4,28,0.00
2013-3-4,49,31,20,25,16,8,76,57,24,29.85,29.73,6,2,12,0.00
2013-3-5,42,36,32,42,34,26,99,93,80,29.81,29.45,8,1,16,0.80
2013-3-6,29,27,24,24,22,19,91,82,70,29.85,29.45,11,4,21,0.01
2013-3-7,40,31,25,26,23,21,91,72,55,30.02,29.87,12,4,24,0.00
2013-3-8,48,33,22,27,22,18,89,66,43,30.07,29.97,11,3,19,0.00
2013-3-9,66,42,24,30,27,22,97,63,22,30.09,30.03,4,1,8,0.00
2013-3-10,65,45,32,37,33,28,88,68,35,30.07,29.95,8,2,12,0.00
2013-3-11,47,45,44,47,45,42,99,98,93,29.91,29.73,1,0,3,0.46
2013-3-12,49,44,33,48,39,32,99,83,54,29.78,29.63,4,1,10,0.50
2013-3-13,40,34,28,30,21,14,89,60,49,29.87,29.80,12,3,21,0.00
2013-3-14,42,30,20,18,14,11,69,53,31,29.99,29.87,9,4,14,0.00
2013-3-15,60,43,29,37,30,18,90,62,38,29.94,29.76,8,2,13,0.00
2013-3-16,73,65,43,50,48,42,97,56,44,29.73,29.61,8,3,16,0.01
2013-3-17,64,50,36,54,47,36,99,89,62,29.90,29.74,7,2,11,0.01
2013-3-18,36,34,32,36,33,32,99,99,99,29.89,29.87,2,0,4,0.02
2013-3-19,52,43,34,45,31,9,99,69,25,29.82,29.66,9,3,15,0.02
2013-3-20,51,42,28,29,14,5,95,36,18,29.86,29.63,12,3,20,0.00
2013-3-21,32,25,18,27,10,6,93,54,38,29.67,29.56,17,3,26,0.01
2013-3-22,47,33,16,26,11,6,70,44,22,29.79,29.70,6,2,11,0.00
2013-3-23,50,39,32,41,35,30,97,84,71,29.81,29.71,2,0,3,0.00
2013-3-24,38,35,32,37,34,32,99,99,97,29.71,29.36,4,0,8,0.93
2013-3-25,36,30,26,32,24,20,99,81,59,29.54,29.36,8,0,20,0.01
2013-3-26,36,30,26,24,22,19,80,71,63,29.81,29.63,6,5,18,0.07
2013-3-27,36,30,26,22,20,18,79,68,51,29.99,29.86,8,3,18,0.00
2013-3-28,46,34,27,25,20,17,73,60,38,30.05,29.98,8,3,14,0.00
2013-3-29,51,38,25,32,24,16,89,63,25,30.08,30.00,5,1,10,0.00
2013-3-30,65,52,32,38,34,29,92,54,31,30.03,29.88,6,1,10,0.00
2013-3-31,59,48,39,51,45,36,99,91,67,29.89,29.67,9,1,21,0.27
2013-4-1,56,50,38,45,38,29,99,63,51,29.81,29.69,11,3,28,0.04
2013-4-2,55,41,30,32,22,14,83,50,25,29.95,29.81,12,2,18,0.00
2013-4-3,62,41,26,23,17,13,72,42,19,30.04,29.94,12,2,17,0.00
2013-4-4,35,33,32,35,33,14,99,97,43,30.06,29.77,2,0,3,0.19
2013-4-5,57,42,33,42,36,32,99,82,45,29.89,29.74,14,2,24,0.35
2013-4-6,70,49,30,41,36,30,99,68,29,30.03,29.89,8,1,14,0.00
2013-4-7,72,52,32,48,41,32,99,70,40,30.03,29.92,10,1,16,0.00
2013-4-8,79,67,37,56,52,37,99,61,40,30.00,29.90,11,2,16,0.00
2013-4-9,88,63,42,59,52,42,99,73,35,30.06,29.95,9,1,14,0.00
2013-4-10,54,52,49,53,51,49,99,97,93,29.97,29.95,2,0,2,0.00
2013-4-11,76,69,49,62,58,48,99,72,52,29.83,29.61,10,2,18,0.09
2013-4-12,69,60,49,62,49,37,99,69,40,29.72,29.55,11,3,18,1.41
2013-4-13,66,52,41,40,36,28,87,57,27,29.84,29.69,11,3,24,0.00
2013-4-14,74,60,35,49,44,34,99,57,33,29.95,29.85,8,1,15,0.00
2013-4-15,54,52,50,54,51,49,99,96,84,30.06,29.86,4,0,7,0.27
2013-4-16,84,64,52,67,58,52,99,85,53,30.12,30.04,8,1,12,0.01
2013-4-17,73,59,52,64,57,52,99,94,63,30.12,30.00,8,0,11,0.18
2013-4-18,79,62,51,64,58,19,99,88,54,30.01,29.84,11,1,14,0.02
2013-4-19,78,57,43,62,56,37,99,97,79,29.84,29.60,11,3,27,1.06
2013-4-20,57,44,34,38,30,21,87,60,37,30.10,29.74,14,3,27,0.01
2013-4-21,65,45,30,38,32,28,97,66,34,30.24,30.08,7,1,11,0.00
2013-4-22,68,50,38,42,36,33,89,61,38,30.21,30.05,3,1,5,0.00
2013-4-23,76,51,32,49,39,29,96,67,37,30.09,29.94,4,1,7,0.00
2013-4-24,72,55,39,58,50,39,99,85,54,29.97,29.85,3,0,5,0.04
2013-4-25,66,50,34,49,33,12,99,62,12,30.13,29.92,8,2,10,0.08
2013-4-26,68,52,34,42,37,30,86,60,33,30.21,30.13,6,1,11,0.00
2013-4-27,57,52,47,52,48,44,99,88,70,30.16,30.06,4,1,5,0.21
2013-4-28,53,50,47,52,49,43,99,99,99,30.03,29.87,4,0,6,1.03
2013-4-29,72,58,49,60,54,49,99,89,50,29.91,29.82,7,0,12,0.04
2013-4-30,81,62,54,62,58,54,99,88,51,30.04,29.86,8,1,11,0.01
2013-5-1,64,57,52,57,54,52,99,92,72,30.14,30.02,7,1,12,0.00
2013-5-2,56,52,49,56,52,49,99,99,99,30.14,30.03,3,1,4,0.22
2013-5-3,65,54,47,50,48,42,99,81,59,30.06,29.96,3,2,6,0.25
2013-5-4,55,47,42,48,44,39,99,91,67,29.95,29.88,4,2,9,0.08
2013-5-5,54,46,40,50,46,38,99,99,99,29.85,29.73,6,2,16,1.82
2013-5-6,71,54,42,61,52,23,99,94,62,30.02,29.69,8,1,17,1.76
2013-5-7,69,50,44,57,49,44,99,95,58,29.79,29.72,4,0,8,0.40
2013-5-8,65,52,44,60,51,41,99,95,76,29.89,29.76,12,1,15,0.18
2013-5-9,81,59,45,59,52,33,99,81,41,29.98,29.17,11,1,18,0.01
2013-5-10,81,60,46,65,56,27,99,88,48,29.98,29.76,11,0,17,0.22
2013-5-11,72,60,51,63,57,28,99,91,41,29.85,29.71,8,1,16,0.01
2013-5-12,61,54,48,53,43,23,91,70,39,29.83,29.73,11,2,18,0.00
2013-5-13,61,52,36,34,30,26,86,45,29,30.00,29.89,13,2,21,0.00
2013-5-14,80,54,32,50,40,30,96,64,29,30.04,29.91,9,1,14,0.00
2013-5-15,87,70,50,61,56,48,99,64,36,29.95,29.87,11,2,26,0.00
2013-5-16,66,60,55,58,55,53,99,86,63,29.89,29.85,5,1,14,0.00
2013-5-17,80,68,50,72,64,50,99,88,58,29.99,29.93,5,0,8,0.00
2013-5-18,67,60,55,67,60,54,99,99,99,30.03,29.94,6,0,9,0.00
2013-5-19,63,61,60,63,60,60,99,99,99,29.99,29.93,2,0,4,0.00
2013-5-20,85,69,58,71,66,58,99,89,57,30.01,29.92,8,1,14,0.01
2013-5-21,90,65,57,72,63,56,99,94,48,29.96,29.85,5,0,11,0.01
2013-5-22,88,66,55,76,63,55,99,92,61,29.91,29.83,4,0,9,0.00
2013-5-23,85,66,56,68,60,56,99,86,46,29.87,29.75,11,1,16,0.00
2013-5-24,64,55,44,56,41,36,99,62,41,30.05,29.77,17,4,31,0.00
2013-5-25,74,56,41,43,38,29,94,57,25,30.12,30.04,10,2,21,0.00
2013-5-26,71,58,50,52,46,41,98,67,41,30.09,30.03,6,2,10,0.00
2013-5-27,78,64,45,62,57,45,99,81,58,30.11,30.02,1,0,3,0.00
2013-5-28,82,67,52,69,61,52,99,82,57,30.08,30.02,2,1,4,0.00
2013-5-29,87,71,54,68,63,54,99,79,51,30.10,30.05,4,1,8,0.00
2013-5-30,90,80,52,70,66,52,99,65,48,30.14,30.06,10,1,14,0.00
2013-6-2,77,64,60,67,63,59,99,96,72,29.87,29.80,2,0,4,0.00
2013-6-3,80,66,57,65,61,57,99,88,60,29.95,29.79,2,0,4,0.00
2013-6-4,82,64,54,67,61,54,99,89,62,30.00,29.95,2,0,4,0.00
2013-6-5,72,66,61,70,65,61,99,97,94,30.00,29.82,1,0,2,0.15
2013-6-6,78,68,61,74,67,61,99,97,87,29.81,29.68,1,0,2,0.43
2013-6-7,74,67,61,71,66,60,99,96,81,29.76,29.62,2,0,3,0.28
2013-6-8,86,77,58,73,65,58,99,69,50,29.90,29.76,7,1,14,0.54
2013-6-9,83,68,61,72,66,61,99,92,70,30.04,29.97,1,0,2,0.76
2013-6-10,82,72,60,74,67,58,99,83,51,29.92,29.79,8,1,14,0.98
2013-6-11,84,68,60,69,63,59,99,86,60,29.92,29.83,9,1,17,0.09
2013-6-12,88,76,66,74,71,66,99,85,60,29.93,29.86,4,1,9,0.00
2013-6-13,84,72,60,72,67,57,99,87,66,29.80,29.66,3,1,5,0.40
2013-6-14,77,68,55,60,57,52,99,69,52,29.93,29.75,11,2,18,0.00
2013-6-15,87,66,50,66,58,49,99,78,49,30.02,29.96,2,0,5,0.00
2013-6-16,59,57,55,58,56,55,99,99,99,30.00,29.97,0,0,0,0.00
2013-6-17,81,71,64,71,68,63,99,91,70,29.93,29.79,2,0,3,0.02
2013-6-18,72,66,59,72,66,59,99,99,97,29.85,29.75,2,0,2,0.27
2013-6-19,82,72,55,72,66,55,99,83,57,30.04,29.85,5,0,8,0.01
2013-6-20,84,68,57,72,65,57,99,89,64,30.13,30.02,6,0,9,0.00
2013-6-21,62,62,61,62,61,60,99,99,99,30.13,30.12,0,0,0,0.00
2013-6-22,91,70,54,70,63,54,99,81,49,30.12,30.03,2,0,4,0.00
2013-6-23,86,69,56,74,65,56,99,89,55,30.11,30.04,2,0,3,0.28
2013-6-24,84,70,57,76,68,57,99,93,73,30.10,30.01,2,0,3,0.77
2013-6-25,90,71,59,78,68,59,99,91,57,30.05,29.93,6,0,9,0.01
2013-6-26,88,72,59,76,68,59,99,88,62,29.96,29.84,6,1,15,0.00
2013-6-27,84,70,61,76,68,60,99,94,71,29.87,29.69,8,1,14,0.08
2013-6-28,82,71,61,73,68,60,99,92,75,29.70,29.59,2,1,5,0.08
2013-6-29,90,72,59,66,63,58,99,78,41,29.67,29.58,2,1,6,0.08
2013-6-30,83,69,56,71,64,55,99,87,66,29.76,29.65,0,0,2,0.56
2013-7-1,85,75,61,75,71,61,99,88,68,29.82,29.74,5,1,11,0.43
2013-7-2,79,67,63,73,67,62,99,98,82,30.03,29.87,2,0,5,0.74
2013-7-3,87,66,61,71,66,60,99,99,99,30.10,30.02,4,0,9,2.51
2013-7-4,78,66,60,78,66,60,99,99,99,30.13,30.06,5,0,10,1.31
2013-7-5,88,71,65,78,69,63,99,95,67,30.14,30.07,5,1,9,0.39
2013-7-6,83,70,65,79,70,65,99,97,80,30.12,30.01,4,0,8,0.53
2013-7-7,84,70,66,78,69,65,99,98,83,30.08,29.99,4,0,8,1.24
2013-7-8,88,78,63,77,72,63,99,82,62,30.10,30.04,5,1,9,0.00
2013-7-9,93,75,63,77,71,62,99,88,53,30.08,29.99,1,0,2,0.00
2013-7-10,91,75,62,82,73,62,99,93,68,29.99,29.88,5,0,8,0.60
2013-7-11,67,66,64,66,65,64,99,99,99,29.88,29.86,2,0,2,0.00
2013-7-12,86,70,62,73,67,61,99,91,65,29.93,29.82,1,0,2,0.06
2013-7-13,76,66,62,71,66,62,99,98,85,30.04,29.93,2,0,3,0.11
2013-7-14,88,70,63,80,70,60,99,97,71,30.19,30.01,7,0,11,1.50
2013-7-15,94,75,64,77,70,64,99,88,55,30.24,30.17,4,0,7,0.01
2013-7-16,99,74,57,79,68,57,99,85,49,30.23,30.16,6,0,9,0.02
2013-7-17,93,73,64,82,71,60,99,93,60,30.20,30.10,6,0,11,0.39
2013-7-18,95,77,62,84,73,62,99,90,60,30.12,30.01,4,0,6,0.01
2013-7-19,93,74,62,82,71,62,99,92,62,30.05,29.93,6,0,11,0.00
2013-7-20,85,68,64,77,68,64,99,99,77,29.98,29.88,4,0,8,0.00
2013-7-21,89,73,62,78,70,61,99,92,62,29.94,29.87,5,0,8,0.00
2013-7-22,87,72,62,80,70,62,99,94,71,29.92,29.78,5,0,9,0.70
2013-7-23,88,72,64,74,69,64,99,90,60,29.81,29.73,7,1,11,0.25
2013-7-24,86,74,62,75,70,62,99,89,65,29.82,29.76,2,0,4,0.25
2013-7-25,83,70,58,73,66,58,99,90,68,29.97,29.81,2,0,4,0.00
2013-7-26,84,71,56,73,67,56,99,89,71,29.99,29.93,2,0,4,0.11
2013-7-27,81,69,64,77,68,64,99,98,82,29.91,29.82,3,0,7,2.19
2013-7-28,77,68,62,75,66,62,99,96,85,29.89,29.83,2,0,6,0.05
2013-7-29,91,71,51,66,60,50,99,74,29,30.11,29.95,3,0,7,0.00
2013-7-30,57,57,57,57,56,56,99,99,99,30.10,30.09,0,0,0,0.00
2013-7-31,69,66,61,69,66,61,99,99,99,30.06,29.89,2,0,4,0.27
2013-8-1,86,71,62,76,68,62,99,91,62,29.90,29.83,7,0,14,0.21
2013-8-2,90,70,56,75,65,56,99,86,52,29.98,29.87,4,0,7,0.00
2013-8-3,84,66,0,73,64,59,99,93,60,29.97,26.89,6,0,11,0.00
2013-8-4,84,76,65,67,64,61,99,68,54,29.94,29.89,5,1,10,0.01
2013-8-12,85,70,65,76,69,65,99,96,76,29.93,29.82,0,0,2,0.15
2013-8-13,80,69,59,76,67,59,99,94,82,29.84,29.79,2,1,4,0.21
2013-8-14,79,64,50,64,57,50,99,83,53,29.99,29.88,3,1,6,0.00
2013-8-15,68,58,49,61,56,49,99,94,79,30.04,29.97,0,0,2,0.00
2013-8-16,78,63,49,66,59,48,99,87,59,30.06,29.99,2,0,4,0.00
2013-8-17,67,60,52,64,60,52,99,97,86,30.07,30.02,1,0,3,0.48
2013-8-18,80,65,60,74,65,60,99,99,82,30.08,30.03,4,0,6,1.93
2013-8-19,64,64,64,63,63,63,99,99,99,30.08,30.04,0,0,1,0.08
2013-8-20,88,72,62,74,69,61,99,90,64,30.10,30.03,2,0,2,0.00
2013-8-21,86,71,62,78,69,62,99,96,75,30.11,30.05,2,0,3,0.01
2013-8-22,90,75,59,77,70,58,99,86,61,30.06,29.96,4,0,8,0.01
2013-8-23,63,62,62,63,62,61,99,99,99,29.99,29.95,0,0,0,0.00
2013-8-24,84,67,52,65,60,52,99,83,48,30.21,30.05,3,0,4,0.01
2013-8-25,83,66,49,66,59,48,99,83,56,30.26,30.18,2,0,4,0.00
2013-8-26,82,66,50,68,61,50,99,85,58,30.17,30.05,3,1,9,0.00
2013-8-27,66,64,57,66,63,56,99,99,99,30.02,30.00,4,1,8,0.00